Location: Treviso
(45.6669°N, 12.2430°E)
Time: 08:52:43
(UTC+02:00)

CUBESAT XI-V - Pass Details

Date: 01 May 2019
Orbit: 668 x 694 km, 98.0° (Epoch: 23 May)

Event Time Altitude Azimuth Distance (km) Brightness Sun altitude
Exits shadow 04:44:59 17° 231° (SW) 1,687 ? -12.1°
Maximum altitude 04:47:04 23° 267° (W) 1,433 ? -11.8°
Drops below altitude 10° 04:50:48 10° 320° (NW) 2,132 ? -11.3°
Sets 04:53:27 0° 335° (NNW) 3,047 ? -10.9°
